Location: Dodgeville, WI 53533, USA
(43.0344°N, 90.0900°W)
Time: 16:05:09
(UTC-06:00)

OTV 5 (USA 277) - Visible Passes

Search period start: 14 December 2018 00:00
Search period end: 24 December 2018 00:00
Orbit: 340 x 348 km, 54.5° (Epoch: 10 December)

Date Brightness Start Highest point End Pass type
(mag) Time Alt. Az. Time Alt. Az. Time Alt. Az.
14 Dec ? 05:15:13 31° E 05:15:13 31° E 05:17:03 10° ESE visible
14 Dec ? 06:47:09 10° W 06:48:55 15° SW 06:50:40 10° SSW visible
15 Dec ? 05:38:21 46° S 05:38:21 46° S 05:40:43 10° SE visible
16 Dec ? 06:01:35 16° SW 06:01:35 16° SW 06:03:12 10° S visible
